Year,Month,Day,Hour,Minute,Value (Times are PST for insolation in W/m^2)
2021,07,16,00,01,0.00
2021,07,16,00,02,0.00
2021,07,16,00,03,0.00
2021,07,16,00,04,0.00
2021,07,16,00,05,0.00
2021,07,16,00,06,0.00
2021,07,16,00,07,0.00
2021,07,16,00,08,0.00
2021,07,16,00,09,0.00
2021,07,16,00,10,0.00
2021,07,16,00,11,0.00
2021,07,16,00,12,0.00
2021,07,16,00,13,0.00
2021,07,16,00,14,0.00
2021,07,16,00,15,0.00
2021,07,16,00,16,0.00
2021,07,16,00,17,0.00
2021,07,16,00,18,0.00
2021,07,16,00,19,0.00
2021,07,16,00,20,0.00
2021,07,16,00,21,0.00
2021,07,16,00,22,0.00
2021,07,16,00,23,0.00
2021,07,16,00,24,0.00
2021,07,16,00,25,0.00
2021,07,16,00,26,0.00
2021,07,16,00,27,0.00
2021,07,16,00,28,0.00
2021,07,16,00,29,0.00
2021,07,16,00,30,0.00
2021,07,16,00,31,0.00
2021,07,16,00,32,0.00
2021,07,16,00,33,0.00
2021,07,16,00,34,0.00
2021,07,16,00,35,0.00
2021,07,16,00,36,0.00
2021,07,16,00,37,0.00
2021,07,16,00,38,0.00
2021,07,16,00,39,0.00
2021,07,16,00,40,0.00
2021,07,16,00,41,0.00
2021,07,16,00,42,0.00
2021,07,16,00,43,0.00
2021,07,16,00,44,0.00
2021,07,16,00,45,0.00
2021,07,16,00,46,0.00
2021,07,16,00,47,0.00
2021,07,16,00,48,0.00
2021,07,16,00,49,0.00
2021,07,16,00,50,0.00
2021,07,16,00,52,0.00
2021,07,16,00,53,0.00
2021,07,16,00,54,0.00
2021,07,16,00,55,0.00
2021,07,16,00,57,0.00
2021,07,16,00,58,0.00
2021,07,16,00,59,0.00
2021,07,16,01,00,0.00
2021,07,16,01,01,0.00
2021,07,16,01,02,0.00
2021,07,16,01,03,0.00
2021,07,16,01,04,0.00
2021,07,16,01,05,0.00
2021,07,16,01,06,0.00
2021,07,16,01,07,0.00
2021,07,16,01,08,0.00
2021,07,16,01,09,0.00
2021,07,16,01,10,0.00
2021,07,16,01,12,0.00
2021,07,16,01,13,0.00
2021,07,16,01,14,0.00
2021,07,16,01,15,0.00
2021,07,16,01,16,0.00
2021,07,16,01,17,0.00
2021,07,16,01,18,0.00
2021,07,16,01,19,0.00
2021,07,16,01,20,0.00
2021,07,16,01,21,0.00
2021,07,16,01,22,0.00
2021,07,16,01,23,0.00
2021,07,16,01,24,0.00
2021,07,16,01,25,0.00
2021,07,16,01,26,0.00
2021,07,16,01,27,0.00
2021,07,16,01,28,0.00
2021,07,16,01,29,0.00
2021,07,16,01,30,0.00
2021,07,16,01,31,0.00
2021,07,16,01,32,0.00
2021,07,16,01,33,0.00
2021,07,16,01,34,0.00
2021,07,16,01,35,0.00
2021,07,16,01,36,0.00
2021,07,16,01,37,0.00
2021,07,16,01,38,0.00
2021,07,16,01,39,0.00
2021,07,16,01,40,0.00
2021,07,16,01,41,0.00
2021,07,16,01,42,0.00
2021,07,16,01,43,0.00
2021,07,16,01,44,0.00
2021,07,16,01,45,0.00
2021,07,16,01,46,0.00
2021,07,16,01,47,0.00
2021,07,16,01,48,0.00
2021,07,16,01,49,0.00
2021,07,16,01,50,0.00
2021,07,16,01,51,0.00
2021,07,16,01,52,0.00
2021,07,16,01,53,0.00
2021,07,16,01,54,0.00
2021,07,16,01,55,0.00
2021,07,16,01,56,0.00
2021,07,16,01,57,0.00
2021,07,16,01,58,0.00
2021,07,16,01,59,0.00
2021,07,16,02,00,0.00
2021,07,16,02,01,0.00
2021,07,16,02,02,0.00
2021,07,16,02,03,0.00
2021,07,16,02,04,0.00
2021,07,16,02,05,0.00
2021,07,16,02,06,0.00
2021,07,16,02,07,0.00
2021,07,16,02,08,0.00
2021,07,16,02,09,0.00
2021,07,16,02,10,0.00
2021,07,16,02,11,0.00
2021,07,16,02,12,0.00
2021,07,16,02,13,0.00
2021,07,16,02,14,0.00
2021,07,16,02,15,0.00
2021,07,16,02,16,0.00
2021,07,16,02,17,0.00
2021,07,16,02,18,0.00
2021,07,16,02,19,0.00
2021,07,16,02,20,0.00
2021,07,16,02,21,0.00
2021,07,16,02,22,0.00
2021,07,16,02,23,0.00
2021,07,16,02,24,0.00
2021,07,16,02,25,0.00
2021,07,16,02,26,0.00
2021,07,16,02,27,0.00
2021,07,16,02,28,0.00
2021,07,16,02,29,0.00
2021,07,16,02,30,0.00
2021,07,16,02,32,0.00
2021,07,16,02,33,0.00
2021,07,16,02,34,0.00
2021,07,16,02,35,0.00
2021,07,16,02,36,0.00
2021,07,16,02,37,0.00
2021,07,16,02,38,0.00
2021,07,16,02,39,0.00
2021,07,16,02,40,0.00
2021,07,16,02,41,0.00
2021,07,16,02,42,0.00
2021,07,16,02,43,0.00
2021,07,16,02,44,0.00
2021,07,16,02,45,0.00
2021,07,16,02,46,0.00
2021,07,16,02,47,0.00
2021,07,16,02,48,0.00
2021,07,16,02,49,0.00
2021,07,16,02,50,0.00
2021,07,16,02,51,0.00
2021,07,16,02,52,0.00
2021,07,16,02,53,0.00
2021,07,16,02,54,0.00
2021,07,16,02,55,0.00
2021,07,16,02,56,0.00
2021,07,16,02,57,0.00
2021,07,16,02,58,0.00
2021,07,16,02,59,0.00
2021,07,16,03,00,0.00
2021,07,16,03,01,0.00
2021,07,16,03,02,0.00
2021,07,16,03,03,0.00
2021,07,16,03,04,0.00
2021,07,16,03,05,0.00
2021,07,16,03,06,0.00
2021,07,16,03,07,0.00
2021,07,16,03,08,0.00
2021,07,16,03,09,0.00
2021,07,16,03,10,0.00
2021,07,16,03,11,0.00
2021,07,16,03,12,0.00
2021,07,16,03,13,0.00
2021,07,16,03,14,0.00
2021,07,16,03,15,0.00
2021,07,16,03,16,0.00
2021,07,16,03,17,0.00
2021,07,16,03,18,0.00
2021,07,16,03,19,0.00
2021,07,16,03,20,0.00
2021,07,16,03,21,0.00
2021,07,16,03,22,0.00
2021,07,16,03,23,0.00
2021,07,16,03,24,0.00
2021,07,16,03,25,0.00
2021,07,16,03,26,0.00
2021,07,16,03,27,0.00
2021,07,16,03,28,0.00
2021,07,16,03,29,0.00
2021,07,16,03,30,0.00
2021,07,16,03,31,0.00
2021,07,16,03,32,0.00
2021,07,16,03,33,0.00
2021,07,16,03,34,0.00
2021,07,16,03,35,0.00
2021,07,16,03,37,0.00
2021,07,16,03,38,0.00
2021,07,16,03,39,0.00
2021,07,16,03,40,0.00
2021,07,16,03,41,0.00
2021,07,16,03,42,0.00
2021,07,16,03,43,0.00
2021,07,16,03,44,0.00
2021,07,16,03,45,0.00
2021,07,16,03,47,0.00
2021,07,16,03,48,0.00
2021,07,16,03,49,0.00
2021,07,16,03,50,0.00
2021,07,16,03,51,0.00
2021,07,16,03,52,0.00
2021,07,16,03,53,0.00
2021,07,16,03,54,0.00
2021,07,16,03,55,0.00
2021,07,16,03,56,0.00
2021,07,16,03,57,0.00
2021,07,16,03,58,0.00
2021,07,16,03,59,0.00
2021,07,16,04,00,0.00
2021,07,16,04,02,0.00
2021,07,16,04,03,0.00
2021,07,16,04,04,0.00
2021,07,16,04,05,0.00
2021,07,16,04,06,0.00
2021,07,16,04,07,0.00
2021,07,16,04,08,0.00
2021,07,16,04,09,0.00
2021,07,16,04,10,0.00
2021,07,16,04,11,0.00
2021,07,16,04,12,0.00
2021,07,16,04,13,0.00
2021,07,16,04,14,0.00
2021,07,16,04,15,0.00
2021,07,16,04,16,0.00
2021,07,16,04,17,0.00
2021,07,16,04,18,0.00
2021,07,16,04,19,0.00
2021,07,16,04,20,0.00
2021,07,16,04,21,0.00
2021,07,16,04,22,0.00
2021,07,16,04,23,0.00
2021,07,16,04,24,0.00
2021,07,16,04,25,0.00
2021,07,16,04,26,0.00
2021,07,16,04,27,0.00
2021,07,16,04,28,0.00
2021,07,16,04,29,0.00
2021,07,16,04,30,0.00
2021,07,16,04,31,0.00
2021,07,16,04,32,0.00
2021,07,16,04,33,0.00
2021,07,16,04,34,0.00
2021,07,16,04,35,0.00
2021,07,16,04,36,0.00
2021,07,16,04,37,0.00
2021,07,16,04,38,0.00
2021,07,16,04,39,0.00
2021,07,16,04,40,0.00
2021,07,16,04,41,0.00
2021,07,16,04,42,0.00
2021,07,16,04,43,0.00
2021,07,16,04,44,0.00
2021,07,16,04,45,0.00
2021,07,16,04,46,0.00
2021,07,16,04,47,0.00
2021,07,16,04,48,0.00
2021,07,16,04,50,0.00
2021,07,16,04,51,0.00
2021,07,16,04,52,0.00
2021,07,16,04,53,0.00
2021,07,16,04,54,0.00
2021,07,16,04,55,0.00
2021,07,16,04,56,0.00
2021,07,16,04,57,0.00
2021,07,16,04,58,0.00
2021,07,16,04,59,0.00
2021,07,16,05,00,0.00
2021,07,16,05,01,0.00
2021,07,16,05,02,0.00
2021,07,16,05,03,0.00
2021,07,16,05,04,0.00
2021,07,16,05,05,0.00
2021,07,16,05,06,0.00
2021,07,16,05,07,0.00
2021,07,16,05,08,0.00
2021,07,16,05,09,0.00
2021,07,16,05,10,0.00
2021,07,16,05,11,0.00
2021,07,16,05,12,0.00
2021,07,16,05,13,0.00
2021,07,16,05,14,0.00
2021,07,16,05,15,0.00
2021,07,16,05,16,0.00
2021,07,16,05,17,0.00
2021,07,16,05,18,0.00
2021,07,16,05,19,0.00
2021,07,16,05,20,0.00
2021,07,16,05,21,0.00
2021,07,16,05,22,0.00
2021,07,16,05,23,0.00
2021,07,16,05,24,0.00
2021,07,16,05,25,0.00
2021,07,16,05,26,0.00
2021,07,16,05,28,0.00
2021,07,16,05,29,0.00
2021,07,16,05,30,0.00
2021,07,16,05,31,0.00
2021,07,16,05,32,0.00
2021,07,16,05,33,0.00
2021,07,16,05,34,0.00
2021,07,16,05,35,0.00
2021,07,16,05,36,5.00
2021,07,16,05,37,5.00
2021,07,16,05,38,5.00
2021,07,16,05,39,5.00
2021,07,16,05,40,5.00
2021,07,16,05,41,5.00
2021,07,16,05,42,5.00
2021,07,16,05,43,7.00
2021,07,16,05,44,7.00
2021,07,16,05,45,9.00
2021,07,16,05,46,9.00
2021,07,16,05,47,9.00
2021,07,16,05,48,9.00
2021,07,16,05,49,11.00
2021,07,16,05,50,11.00
2021,07,16,05,52,11.00
2021,07,16,05,53,11.00
2021,07,16,05,54,11.00
2021,07,16,05,55,12.00
2021,07,16,05,56,12.00
2021,07,16,05,58,12.00
2021,07,16,05,59,12.00
2021,07,16,06,00,14.00
2021,07,16,06,01,14.00
2021,07,16,06,02,14.00
2021,07,16,06,03,14.00
2021,07,16,06,04,14.00
2021,07,16,06,06,16.00
2021,07,16,06,07,16.00
2021,07,16,06,08,18.00
2021,07,16,06,09,18.00
2021,07,16,06,10,18.00
2021,07,16,06,11,18.00
2021,07,16,06,12,18.00
2021,07,16,06,13,18.00
2021,07,16,06,15,19.00
2021,07,16,06,16,19.00
2021,07,16,06,17,19.00
2021,07,16,06,18,21.00
2021,07,16,06,19,21.00
2021,07,16,06,20,21.00
2021,07,16,06,21,21.00
2021,07,16,06,22,21.00
2021,07,16,06,23,21.00
2021,07,16,06,24,23.00
2021,07,16,06,25,23.00
2021,07,16,06,27,25.00
2021,07,16,06,28,25.00
2021,07,16,06,29,25.00
2021,07,16,06,30,26.00
2021,07,16,06,32,28.00
2021,07,16,06,33,30.00
2021,07,16,06,34,33.00
2021,07,16,06,35,35.00
2021,07,16,06,36,37.00
2021,07,16,06,37,37.00
2021,07,16,06,38,37.00
2021,07,16,06,39,37.00
2021,07,16,06,40,37.00
2021,07,16,06,42,37.00
2021,07,16,06,43,37.00
2021,07,16,06,45,39.00
2021,07,16,06,47,40.00
2021,07,16,06,48,42.00
2021,07,16,06,49,42.00
2021,07,16,06,50,44.00
2021,07,16,06,52,46.00
2021,07,16,06,53,46.00
2021,07,16,06,54,47.00
2021,07,16,06,55,47.00
2021,07,16,06,57,47.00
2021,07,16,06,58,47.00
2021,07,16,06,59,49.00
2021,07,16,07,00,49.00
2021,07,16,07,01,51.00
2021,07,16,07,02,53.00
2021,07,16,07,03,53.00
2021,07,16,07,04,54.00
2021,07,16,07,05,56.00
2021,07,16,07,06,58.00
2021,07,16,07,07,58.00
2021,07,16,07,08,60.00
2021,07,16,07,10,62.00
2021,07,16,07,11,63.00
2021,07,16,07,12,63.00
2021,07,16,07,13,63.00
2021,07,16,07,14,63.00
2021,07,16,07,15,63.00
2021,07,16,07,16,65.00
2021,07,16,07,17,67.00
2021,07,16,07,18,70.00
2021,07,16,07,19,72.00
2021,07,16,07,20,72.00
2021,07,16,07,21,74.00
2021,07,16,07,22,74.00
2021,07,16,07,23,76.00
2021,07,16,07,24,76.00
2021,07,16,07,25,74.00
2021,07,16,07,27,74.00
2021,07,16,07,28,72.00
2021,07,16,07,29,70.00
2021,07,16,07,30,70.00
2021,07,16,07,31,70.00
2021,07,16,07,32,70.00
2021,07,16,07,34,70.00
2021,07,16,07,35,70.00
2021,07,16,07,36,70.00
2021,07,16,07,37,70.00
2021,07,16,07,38,70.00
2021,07,16,07,40,70.00
2021,07,16,07,41,69.00
2021,07,16,07,42,69.00
2021,07,16,07,43,70.00
2021,07,16,07,44,72.00
2021,07,16,07,45,74.00
2021,07,16,07,47,79.00
2021,07,16,07,48,79.00
2021,07,16,07,49,81.00
2021,07,16,07,50,83.00
2021,07,16,07,51,88.00
2021,07,16,07,52,88.00
2021,07,16,07,53,90.00
2021,07,16,07,54,91.00
2021,07,16,07,55,93.00
2021,07,16,07,56,95.00
2021,07,16,07,57,98.00
2021,07,16,07,58,100.00
2021,07,16,07,59,104.00
2021,07,16,08,00,104.00
2021,07,16,08,01,105.00
2021,07,16,08,02,104.00
2021,07,16,08,03,102.00
2021,07,16,08,05,102.00
2021,07,16,08,06,105.00
2021,07,16,08,07,107.00
2021,07,16,08,08,111.00
2021,07,16,08,09,118.00
2021,07,16,08,10,121.00
2021,07,16,08,11,127.00
2021,07,16,08,12,132.00
2021,07,16,08,13,137.00
2021,07,16,08,14,142.00
2021,07,16,08,15,153.00
2021,07,16,08,16,158.00
2021,07,16,08,17,163.00
2021,07,16,08,18,167.00
2021,07,16,08,19,167.00
2021,07,16,08,20,163.00
2021,07,16,08,21,171.00
2021,07,16,08,22,171.00
2021,07,16,08,23,178.00
2021,07,16,08,24,186.00
2021,07,16,08,26,190.00
2021,07,16,08,27,200.00
2021,07,16,08,28,206.00
2021,07,16,08,29,209.00
2021,07,16,08,30,213.00
2021,07,16,08,31,213.00
2021,07,16,08,32,213.00
2021,07,16,08,33,209.00
2021,07,16,08,34,206.00
2021,07,16,08,35,195.00
2021,07,16,08,37,153.00
2021,07,16,08,38,139.00
2021,07,16,08,39,141.00
2021,07,16,08,40,141.00
2021,07,16,08,41,141.00
2021,07,16,08,42,146.00
2021,07,16,08,43,153.00
2021,07,16,08,44,169.00
2021,07,16,08,45,195.00
2021,07,16,08,46,206.00
2021,07,16,08,47,220.00
2021,07,16,08,48,232.00
2021,07,16,08,49,243.00
2021,07,16,08,50,253.00
2021,07,16,08,51,278.00
2021,07,16,08,52,288.00
2021,07,16,08,53,297.00
2021,07,16,08,54,302.00
2021,07,16,08,55,306.00
2021,07,16,08,57,334.00
2021,07,16,08,58,341.00
2021,07,16,08,59,348.00
2021,07,16,09,00,355.00
2021,07,16,09,01,359.00
2021,07,16,09,02,376.00
2021,07,16,09,03,387.00
2021,07,16,09,04,380.00
2021,07,16,09,05,343.00
2021,07,16,09,07,410.00
2021,07,16,09,08,410.00
2021,07,16,09,09,327.00
2021,07,16,09,10,236.00
2021,07,16,09,11,206.00
2021,07,16,09,12,183.00
2021,07,16,09,13,174.00
2021,07,16,09,14,172.00
2021,07,16,09,15,186.00
2021,07,16,09,16,234.00
2021,07,16,09,17,234.00
2021,07,16,09,18,417.00
2021,07,16,09,19,490.00
2021,07,16,09,20,911.00
2021,07,16,09,21,858.00
2021,07,16,09,22,858.00
2021,07,16,09,23,858.00
2021,07,16,09,24,863.00
2021,07,16,09,25,459.00
2021,07,16,09,26,770.00
2021,07,16,09,27,728.00
2021,07,16,09,28,728.00
2021,07,16,09,29,434.00
2021,07,16,09,30,413.00
2021,07,16,09,31,485.00
2021,07,16,09,32,485.00
2021,07,16,09,34,485.00
2021,07,16,09,35,485.00
2021,07,16,09,36,485.00
2021,07,16,09,37,807.00
2021,07,16,09,38,786.00
2021,07,16,09,39,770.00
2021,07,16,09,40,693.00
2021,07,16,09,41,693.00
2021,07,16,09,42,680.00
2021,07,16,09,43,564.00
2021,07,16,09,44,564.00
2021,07,16,09,45,687.00
2021,07,16,09,47,784.00
2021,07,16,09,48,775.00
2021,07,16,09,49,744.00
2021,07,16,09,50,766.00
2021,07,16,09,51,717.00
2021,07,16,09,52,626.00
2021,07,16,09,53,606.00
2021,07,16,09,54,566.00
2021,07,16,09,55,496.00
2021,07,16,09,56,471.00
2021,07,16,09,57,471.00
2021,07,16,09,58,292.00
2021,07,16,09,59,279.00
2021,07,16,10,00,274.00
2021,07,16,10,01,281.00
2021,07,16,10,02,329.00
2021,07,16,10,03,295.00
2021,07,16,10,04,294.00
2021,07,16,10,05,308.00
2021,07,16,10,06,332.00
2021,07,16,10,07,332.00
2021,07,16,10,08,364.00
2021,07,16,10,09,364.00
2021,07,16,10,10,445.00
2021,07,16,10,11,445.00
2021,07,16,10,12,455.00
2021,07,16,10,13,455.00
2021,07,16,10,14,327.00
2021,07,16,10,15,262.00
2021,07,16,10,16,220.00
2021,07,16,10,17,199.00
2021,07,16,10,18,188.00
2021,07,16,10,19,178.00
2021,07,16,10,20,174.00
2021,07,16,10,22,186.00
2021,07,16,10,23,202.00
2021,07,16,10,24,258.00
2021,07,16,10,25,288.00
2021,07,16,10,26,311.00
2021,07,16,10,27,323.00
2021,07,16,10,28,339.00
2021,07,16,10,29,373.00
2021,07,16,10,30,473.00
2021,07,16,10,31,473.00
2021,07,16,10,32,473.00
2021,07,16,10,33,1132.00
2021,07,16,10,34,1090.00
2021,07,16,10,35,1053.00
2021,07,16,10,36,1053.00
2021,07,16,10,37,1053.00
2021,07,16,10,38,817.00
2021,07,16,10,39,729.00
2021,07,16,10,40,766.00
2021,07,16,10,41,844.00
2021,07,16,10,42,844.00
2021,07,16,10,43,844.00
2021,07,16,10,44,457.00
2021,07,16,10,45,431.00
2021,07,16,10,46,417.00
2021,07,16,10,48,476.00
2021,07,16,10,49,476.00
2021,07,16,10,50,476.00
2021,07,16,10,51,478.00
2021,07,16,10,52,454.00
2021,07,16,10,53,448.00
2021,07,16,10,54,446.00
2021,07,16,10,55,431.00
2021,07,16,10,56,422.00
2021,07,16,10,57,425.00
2021,07,16,10,58,452.00
2021,07,16,10,59,413.00
2021,07,16,11,00,415.00
2021,07,16,11,01,445.00
2021,07,16,11,02,408.00
2021,07,16,11,03,359.00
2021,07,16,11,04,381.00
2021,07,16,11,05,396.00
2021,07,16,11,06,413.00
2021,07,16,11,07,413.00
2021,07,16,11,08,445.00
2021,07,16,11,09,464.00
2021,07,16,11,10,670.00
2021,07,16,11,11,577.00
2021,07,16,11,12,577.00
2021,07,16,11,13,577.00
2021,07,16,11,14,577.00
2021,07,16,11,15,577.00
2021,07,16,11,16,577.00
2021,07,16,11,17,497.00
2021,07,16,11,18,446.00
2021,07,16,11,21,373.00
2021,07,16,11,22,348.00
2021,07,16,11,23,341.00
2021,07,16,11,24,352.00
2021,07,16,11,25,353.00
2021,07,16,11,27,359.00
2021,07,16,11,28,366.00
2021,07,16,11,29,373.00
2021,07,16,11,30,334.00
2021,07,16,11,31,299.00
2021,07,16,11,32,265.00
2021,07,16,11,33,243.00
2021,07,16,11,34,248.00
2021,07,16,11,35,229.00
2021,07,16,11,37,232.00
2021,07,16,11,38,320.00
2021,07,16,11,39,320.00
2021,07,16,11,40,497.00
2021,07,16,11,41,517.00
2021,07,16,11,42,554.00
2021,07,16,11,43,643.00
2021,07,16,11,44,649.00
2021,07,16,11,45,703.00
2021,07,16,11,46,830.00
2021,07,16,11,47,872.00
2021,07,16,11,48,872.00
2021,07,16,11,49,629.00
2021,07,16,11,50,657.00
2021,07,16,11,51,524.00
2021,07,16,11,52,506.00
2021,07,16,11,53,469.00
2021,07,16,11,54,461.00
2021,07,16,11,55,468.00
2021,07,16,11,57,468.00
2021,07,16,11,58,483.00
2021,07,16,12,00,487.00
2021,07,16,12,01,519.00
2021,07,16,12,02,522.00
2021,07,16,12,03,512.00
2021,07,16,12,04,504.00
2021,07,16,12,05,496.00
2021,07,16,12,06,480.00
2021,07,16,12,07,466.00
2021,07,16,12,08,476.00
2021,07,16,12,09,589.00
2021,07,16,12,10,619.00
2021,07,16,12,11,638.00
2021,07,16,12,12,631.00
2021,07,16,12,13,591.00
2021,07,16,12,14,550.00
2021,07,16,12,15,529.00
2021,07,16,12,16,531.00
2021,07,16,12,17,538.00
2021,07,16,12,18,545.00
2021,07,16,12,19,543.00
2021,07,16,12,20,552.00
2021,07,16,12,21,524.00
2021,07,16,12,22,519.00
2021,07,16,12,23,520.00
2021,07,16,12,24,563.00
2021,07,16,12,25,598.00
2021,07,16,12,27,770.00
2021,07,16,12,28,682.00
2021,07,16,12,30,643.00
2021,07,16,12,31,810.00
2021,07,16,12,32,1443.00
2021,07,16,12,33,1484.00
2021,07,16,12,34,1484.00
2021,07,16,12,35,1484.00
2021,07,16,12,36,1484.00
2021,07,16,12,37,1484.00
2021,07,16,12,38,533.00
2021,07,16,12,39,601.00
2021,07,16,12,40,589.00
2021,07,16,12,41,570.00
2021,07,16,12,42,555.00
2021,07,16,12,43,548.00
2021,07,16,12,44,529.00
2021,07,16,12,45,536.00
2021,07,16,12,46,554.00
2021,07,16,12,47,564.00
2021,07,16,12,48,464.00
2021,07,16,12,49,417.00
2021,07,16,12,50,338.00
2021,07,16,12,51,308.00
2021,07,16,12,52,283.00
2021,07,16,12,54,264.00
2021,07,16,12,55,250.00
2021,07,16,12,56,237.00
2021,07,16,12,57,237.00
2021,07,16,12,58,241.00
2021,07,16,12,59,243.00
2021,07,16,13,00,246.00
2021,07,16,13,02,248.00
2021,07,16,13,03,251.00
2021,07,16,13,04,253.00
2021,07,16,13,05,258.00
2021,07,16,13,06,258.00
2021,07,16,13,07,297.00
2021,07,16,13,08,336.00
2021,07,16,13,09,431.00
2021,07,16,13,10,468.00
2021,07,16,13,11,499.00
2021,07,16,13,12,519.00
2021,07,16,13,13,552.00
2021,07,16,13,14,587.00
2021,07,16,13,15,599.00
2021,07,16,13,16,578.00
2021,07,16,13,17,578.00
2021,07,16,13,18,578.00
2021,07,16,13,19,578.00
2021,07,16,13,20,578.00
2021,07,16,13,21,578.00
2021,07,16,13,22,422.00
2021,07,16,13,23,432.00
2021,07,16,13,24,436.00
2021,07,16,13,25,438.00
2021,07,16,13,26,443.00
2021,07,16,13,27,520.00
2021,07,16,13,28,520.00
2021,07,16,13,29,510.00
2021,07,16,13,30,510.00
2021,07,16,13,31,510.00
2021,07,16,13,32,510.00
2021,07,16,13,33,510.00
2021,07,16,13,34,510.00
2021,07,16,13,35,510.00
2021,07,16,13,36,510.00
2021,07,16,13,37,1310.00
2021,07,16,13,38,1292.00
2021,07,16,13,39,1297.00
2021,07,16,13,40,1297.00
2021,07,16,13,41,1297.00
2021,07,16,13,42,1297.00
2021,07,16,13,43,1297.00
2021,07,16,13,44,742.00
2021,07,16,13,45,742.00
2021,07,16,13,46,738.00
2021,07,16,13,47,738.00
2021,07,16,13,48,738.00
2021,07,16,13,49,1262.00
2021,07,16,13,50,1201.00
2021,07,16,13,51,520.00
2021,07,16,13,52,494.00
2021,07,16,13,53,494.00
2021,07,16,13,54,1136.00
2021,07,16,13,55,1136.00
2021,07,16,13,56,1136.00
2021,07,16,13,57,1269.00
2021,07,16,13,58,1255.00
2021,07,16,13,59,1255.00
2021,07,16,14,00,1255.00
2021,07,16,14,01,1255.00
2021,07,16,14,02,1255.00
2021,07,16,14,03,1255.00
2021,07,16,14,04,1255.00
2021,07,16,14,05,1255.00
2021,07,16,14,06,1171.00
2021,07,16,14,07,1195.00
2021,07,16,14,08,1195.00
2021,07,16,14,09,1195.00
2021,07,16,14,10,1195.00
2021,07,16,14,11,1195.00
2021,07,16,14,12,1195.00
2021,07,16,14,13,1195.00
2021,07,16,14,14,1195.00
2021,07,16,14,15,496.00
2021,07,16,14,16,577.00
2021,07,16,14,17,577.00
2021,07,16,14,18,577.00
2021,07,16,14,19,649.00
2021,07,16,14,20,664.00
2021,07,16,14,21,599.00
2021,07,16,14,22,599.00
2021,07,16,14,23,599.00
2021,07,16,14,24,599.00
2021,07,16,14,25,981.00
2021,07,16,14,26,981.00
2021,07,16,14,27,981.00
2021,07,16,14,28,559.00
2021,07,16,14,29,580.00
2021,07,16,14,30,555.00
2021,07,16,14,31,512.00
2021,07,16,14,32,425.00
2021,07,16,14,33,418.00
2021,07,16,14,34,510.00
2021,07,16,14,35,554.00
2021,07,16,14,36,554.00
2021,07,16,14,37,554.00
2021,07,16,14,38,554.00
2021,07,16,14,39,554.00
2021,07,16,14,40,448.00
2021,07,16,14,41,464.00
2021,07,16,14,42,483.00
2021,07,16,14,43,438.00
2021,07,16,14,44,445.00
2021,07,16,14,45,396.00
2021,07,16,14,46,385.00
2021,07,16,14,47,369.00
2021,07,16,14,48,388.00
2021,07,16,14,49,454.00
2021,07,16,14,50,540.00
2021,07,16,14,51,550.00
2021,07,16,14,52,626.00
2021,07,16,14,53,601.00
2021,07,16,14,54,578.00
2021,07,16,14,55,552.00
2021,07,16,14,56,482.00
2021,07,16,14,57,439.00
2021,07,16,14,58,411.00
2021,07,16,14,59,380.00
2021,07,16,15,00,325.00
2021,07,16,15,01,313.00
2021,07,16,15,02,311.00
2021,07,16,15,03,320.00
2021,07,16,15,04,325.00
2021,07,16,15,05,334.00
2021,07,16,15,06,357.00
2021,07,16,15,07,364.00
2021,07,16,15,08,367.00
2021,07,16,15,09,369.00
2021,07,16,15,10,364.00
2021,07,16,15,11,348.00
2021,07,16,15,12,318.00
2021,07,16,15,13,306.00
2021,07,16,15,14,285.00
2021,07,16,15,15,271.00
2021,07,16,15,16,264.00
2021,07,16,15,17,262.00
2021,07,16,15,18,267.00
2021,07,16,15,19,271.00
2021,07,16,15,20,269.00
2021,07,16,15,21,264.00
2021,07,16,15,22,264.00
2021,07,16,15,23,274.00
2021,07,16,15,24,269.00
2021,07,16,15,25,258.00
2021,07,16,15,26,248.00
2021,07,16,15,27,244.00
2021,07,16,15,28,246.00
2021,07,16,15,29,246.00
2021,07,16,15,30,243.00
2021,07,16,15,31,234.00
2021,07,16,15,32,225.00
2021,07,16,15,33,218.00
2021,07,16,15,34,214.00
2021,07,16,15,35,218.00
2021,07,16,15,36,229.00
2021,07,16,15,37,237.00
2021,07,16,15,38,244.00
2021,07,16,15,39,244.00
2021,07,16,15,40,241.00
2021,07,16,15,41,232.00
2021,07,16,15,42,220.00
2021,07,16,15,43,200.00
2021,07,16,15,44,183.00
2021,07,16,15,45,174.00
2021,07,16,15,46,171.00
2021,07,16,15,47,165.00
2021,07,16,15,48,163.00
2021,07,16,15,49,163.00
2021,07,16,15,50,163.00
2021,07,16,15,51,163.00
2021,07,16,15,52,162.00
2021,07,16,15,53,165.00
2021,07,16,15,54,171.00
2021,07,16,15,55,174.00
2021,07,16,15,56,176.00
2021,07,16,15,57,172.00
2021,07,16,15,58,163.00
2021,07,16,15,59,160.00
2021,07,16,16,00,158.00
2021,07,16,16,01,162.00
2021,07,16,16,02,165.00
2021,07,16,16,03,167.00
2021,07,16,16,04,169.00
2021,07,16,16,05,171.00
2021,07,16,16,06,172.00
2021,07,16,16,07,176.00
2021,07,16,16,08,176.00
2021,07,16,16,09,172.00
2021,07,16,16,10,169.00
2021,07,16,16,11,169.00
2021,07,16,16,12,172.00
2021,07,16,16,13,174.00
2021,07,16,16,14,176.00
2021,07,16,16,15,178.00
2021,07,16,16,16,176.00
2021,07,16,16,17,174.00
2021,07,16,16,18,176.00
2021,07,16,16,19,181.00
2021,07,16,16,20,190.00
2021,07,16,16,21,200.00
2021,07,16,16,22,209.00
2021,07,16,16,23,207.00
2021,07,16,16,24,204.00
2021,07,16,16,25,199.00
2021,07,16,16,26,192.00
2021,07,16,16,27,183.00
2021,07,16,16,28,174.00
2021,07,16,16,29,172.00
2021,07,16,16,30,172.00
2021,07,16,16,31,172.00
2021,07,16,16,32,169.00
2021,07,16,16,33,162.00
2021,07,16,16,34,160.00
2021,07,16,16,35,160.00
2021,07,16,16,36,160.00
2021,07,16,16,37,160.00
2021,07,16,16,38,162.00
2021,07,16,16,39,163.00
2021,07,16,16,40,163.00
2021,07,16,16,41,165.00
2021,07,16,16,42,165.00
2021,07,16,16,43,165.00
2021,07,16,16,44,163.00
2021,07,16,16,45,163.00
2021,07,16,16,46,165.00
2021,07,16,16,47,167.00
2021,07,16,16,48,172.00
2021,07,16,16,49,179.00
2021,07,16,16,50,188.00
2021,07,16,16,51,200.00
2021,07,16,16,52,204.00
2021,07,16,16,53,206.00
2021,07,16,16,54,206.00
2021,07,16,16,55,209.00
2021,07,16,16,56,214.00
2021,07,16,16,57,227.00
2021,07,16,16,58,234.00
2021,07,16,16,59,239.00
2021,07,16,17,00,243.00
2021,07,16,17,01,244.00
2021,07,16,17,02,244.00
2021,07,16,17,03,244.00
2021,07,16,17,04,243.00
2021,07,16,17,05,243.00
2021,07,16,17,06,241.00
2021,07,16,17,07,236.00
2021,07,16,17,08,230.00
2021,07,16,17,09,220.00
2021,07,16,17,10,216.00
2021,07,16,17,11,214.00
2021,07,16,17,12,214.00
2021,07,16,17,13,216.00
2021,07,16,17,14,223.00
2021,07,16,17,15,236.00
2021,07,16,17,16,250.00
2021,07,16,17,17,255.00
2021,07,16,17,18,267.00
2021,07,16,17,19,283.00
2021,07,16,17,20,292.00
2021,07,16,17,21,288.00
2021,07,16,17,22,276.00
2021,07,16,17,23,262.00
2021,07,16,17,24,250.00
2021,07,16,17,25,241.00
2021,07,16,17,26,223.00
2021,07,16,17,27,218.00
2021,07,16,17,28,218.00
2021,07,16,17,29,223.00
2021,07,16,17,30,229.00
2021,07,16,17,31,237.00
2021,07,16,17,32,250.00
2021,07,16,17,33,246.00
2021,07,16,17,34,241.00
2021,07,16,17,35,241.00
2021,07,16,17,36,239.00
2021,07,16,17,37,236.00
2021,07,16,17,38,239.00
2021,07,16,17,39,248.00
2021,07,16,17,40,246.00
2021,07,16,17,41,246.00
2021,07,16,17,42,243.00
2021,07,16,17,43,236.00
2021,07,16,17,44,225.00
2021,07,16,17,45,220.00
2021,07,16,17,46,214.00
2021,07,16,17,47,207.00
2021,07,16,17,48,204.00
2021,07,16,17,49,197.00
2021,07,16,17,50,225.00
2021,07,16,17,51,185.00
2021,07,16,17,52,179.00